Time,TemperatureF,DewpointF,PressureIn,WindDirection,WindDirectionDegrees,WindSpeedMPH,WindSpeedGustMPH,Humidity,HourlyPrecipIn,Conditions,Clouds,dailyrainin,SoftwareType,DateUTC
2013-03-16 00:00:00,50.9,18.1,29.09,SE,146,2.2,3.6,27,0.00,,,0.00,VWS V13.01,2013-03-16 04:00:00,
2013-03-16 00:05:00,50.7,18.0,29.09,ESE,104,3.6,5.4,27,0.00,,,0.00,VWS V13.01,2013-03-16 04:05:00,
2013-03-16 00:10:00,50.7,18.0,29.09,East,95,3.6,5.8,27,0.00,,,0.00,VWS V13.01,2013-03-16 04:10:00,
2013-03-16 00:15:00,50.7,18.0,29.09,SSE,147,0.0,6.3,27,0.00,,,0.00,VWS V13.01,2013-03-16 04:15:00,
2013-03-16 00:20:00,50.7,18.0,29.09,East,83,5.4,5.4,27,0.00,,,0.00,VWS V13.01,2013-03-16 04:20:00,
2013-03-16 00:25:00,51.4,17.7,29.09,SE,133,3.6,6.3,26,0.00,,,0.00,VWS V13.01,2013-03-16 04:25:00,
2013-03-16 00:30:00,51.8,15.2,29.09,SE,125,4.0,5.8,23,0.00,,,0.00,VWS V13.01,2013-03-16 04:30:00,
2013-03-16 00:35:00,51.8,15.2,29.06,SE,125,4.9,6.3,23,0.00,,,0.00,VWS V13.01,2013-03-16 04:35:00,
2013-03-16 00:40:00,52.0,15.4,29.06,ESE,123,6.3,6.7,23,0.00,,,0.00,VWS V13.01,2013-03-16 04:40:00,
2013-03-16 00:45:00,52.7,10.4,29.06,ESE,111,5.8,8.1,18,0.00,,,0.00,VWS V13.01,2013-03-16 04:45:00,
2013-03-16 00:50:00,53.4,11.0,29.06,ESE,112,7.2,7.2,18,0.00,,,0.00,VWS V13.01,2013-03-16 04:50:00,
2013-03-16 00:55:00,55.8,8.8,29.06,East,89,3.6,8.1,15,0.00,,,0.00,VWS V13.01,2013-03-16 04:55:00,
2013-03-16 01:00:00,55.8,8.8,29.06,ESE,107,8.1,8.1,15,0.00,,,0.00,VWS V13.01,2013-03-16 05:00:00,
2013-03-16 01:05:00,54.5,7.8,29.06,SE,137,5.8,8.1,15,0.00,,,0.00,VWS V13.01,2013-03-16 05:05:00,
2013-03-16 01:10:00,54.1,11.6,29.06,SE,144,3.1,4.9,18,0.00,,,0.00,VWS V13.01,2013-03-16 05:10:00,
2013-03-16 01:15:00,54.0,11.4,29.06,SE,142,5.8,5.8,18,0.00,,,0.00,VWS V13.01,2013-03-16 05:15:00,
2013-03-16 01:20:00,53.4,11.0,29.06,South,171,5.4,7.6,18,0.00,,,0.00,VWS V13.01,2013-03-16 05:20:00,
2013-03-16 01:25:00,52.7,10.4,29.06,East,79,4.9,8.1,18,0.00,,,0.00,VWS V13.01,2013-03-16 05:25:00,
2013-03-16 01:30:00,53.2,14.3,29.06,ESE,104,3.6,5.8,21,0.00,,,0.00,VWS V13.01,2013-03-16 05:30:00,
2013-03-16 01:35:00,52.9,14.0,29.03,East,85,3.6,6.3,21,0.00,,,0.00,VWS V13.01,2013-03-16 05:35:00,
2013-03-16 01:40:00,52.9,16.1,29.03,East,101,3.1,5.8,23,0.00,,,0.00,VWS V13.01,2013-03-16 05:40:00,
2013-03-16 01:45:00,54.1,14.0,29.03,SW,229,0.0,4.0,20,0.00,,,0.00,VWS V13.01,2013-03-16 05:45:00,
2013-03-16 01:50:00,53.2,14.3,29.03,ENE,60,4.0,4.0,21,0.00,,,0.00,VWS V13.01,2013-03-16 05:50:00,
2013-03-16 01:55:00,52.7,13.9,29.03,ESE,111,4.0,5.4,21,0.00,,,0.00,VWS V13.01,2013-03-16 05:55:00,
2013-03-16 02:00:00,53.1,19.1,29.03,East,91,4.0,5.4,26,0.00,,,0.00,VWS V13.01,2013-03-16 06:00:00,
2013-03-16 02:05:00,55.0,14.7,29.03,East,93,4.0,5.8,20,0.00,,,0.00,VWS V13.01,2013-03-16 06:05:00,
2013-03-16 02:10:00,56.3,12.1,29.03,SSW,195,6.3,10.5,17,0.00,,,0.00,VWS V13.01,2013-03-16 06:10:00,
2013-03-16 02:15:00,56.5,12.2,29.03,ENE,61,0.0,5.4,17,0.00,,,0.00,VWS V13.01,2013-03-16 06:15:00,
2013-03-16 02:20:00,56.8,9.7,29.03,East,93,2.7,4.0,15,0.00,,,0.00,VWS V13.01,2013-03-16 06:20:00,
2013-03-16 02:25:00,57.6,8.7,29.03,East,85,5.8,6.3,14,0.00,,,0.00,VWS V13.01,2013-03-16 06:25:00,
2013-03-16 02:30:00,58.5,9.5,29.03,NE,49,2.7,5.4,14,0.00,,,0.00,VWS V13.01,2013-03-16 06:30:00,
2013-03-16 02:35:00,59.5,10.3,29.03,NW,326,2.7,3.1,14,0.00,,,0.00,VWS V13.01,2013-03-16 06:35:00,
2013-03-16 02:40:00,60.4,11.0,29.03,NNE,12,5.4,5.4,14,0.00,,,0.00,VWS V13.01,2013-03-16 06:40:00,
2013-03-16 02:45:00,61.0,11.5,29.03,WSW,237,3.1,5.4,14,0.00,,,0.00,VWS V13.01,2013-03-16 06:45:00,
2013-03-16 02:50:00,61.3,11.8,29.00,SW,231,4.0,5.8,14,0.00,,,0.00,VWS V13.01,2013-03-16 06:50:00,
2013-03-16 02:55:00,61.3,11.8,29.00,South,175,2.2,3.1,14,0.00,,,0.00,VWS V13.01,2013-03-16 06:55:00,
2013-03-16 03:00:00,61.7,12.1,29.00,East,92,4.9,5.8,14,0.00,,,0.00,VWS V13.01,2013-03-16 07:00:00,
2013-03-16 03:05:00,62.2,12.5,29.00,WSW,240,3.1,4.0,14,0.00,,,0.00,VWS V13.01,2013-03-16 07:05:00,
2013-03-16 03:10:00,63.1,11.5,29.00,WSW,238,8.7,8.7,13,0.00,,,0.00,VWS V13.01,2013-03-16 07:10:00,
2013-03-16 03:15:00,64.2,12.4,29.00,NW,317,8.3,11.0,13,0.00,,,0.00,VWS V13.01,2013-03-16 07:15:00,
2013-03-16 03:20:00,64.6,12.7,29.00,WNW,284,4.9,5.8,13,0.00,,,0.00,VWS V13.01,2013-03-16 07:20:00,
2013-03-16 03:25:00,64.6,12.7,29.00,WSW,249,8.3,8.3,13,0.00,,,0.00,VWS V13.01,2013-03-16 07:25:00,
2013-03-16 03:30:00,64.9,12.9,29.00,West,280,4.0,5.8,13,0.00,,,0.00,VWS V13.01,2013-03-16 07:30:00,
2013-03-16 03:35:00,65.3,13.2,29.00,WSW,246,11.0,11.0,13,0.00,,,0.00,VWS V13.01,2013-03-16 07:35:00,
2013-03-16 03:40:00,65.3,13.2,29.00,WSW,248,8.1,10.1,13,0.00,,,0.00,VWS V13.01,2013-03-16 07:40:00,
2013-03-16 03:45:00,65.3,13.2,29.00,West,270,8.7,12.3,13,0.00,,,0.00,VWS V13.01,2013-03-16 07:45:00,
2013-03-16 03:50:00,65.5,13.4,29.00,WSW,253,4.0,10.5,13,0.00,,,0.00,VWS V13.01,2013-03-16 07:50:00,
2013-03-16 03:55:00,65.5,13.4,29.00,SSW,212,8.1,8.1,13,0.00,,,0.00,VWS V13.01,2013-03-16 07:55:00,
2013-03-16 04:00:00,65.7,13.5,29.00,WSW,243,8.3,15.0,13,0.00,,,0.00,VWS V13.01,2013-03-16 08:00:00,
2013-03-16 04:05:00,65.7,13.5,29.00,West,277,4.9,8.3,13,0.00,,,0.00,VWS V13.01,2013-03-16 08:05:00,
2013-03-16 04:10:00,65.7,13.5,29.00,WSW,238,6.3,6.3,13,0.00,,,0.00,VWS V13.01,2013-03-16 08:10:00,
2013-03-16 04:15:00,65.5,13.4,29.00,West,268,5.4,5.4,13,0.00,,,0.00,VWS V13.01,2013-03-16 08:15:00,
2013-03-16 04:20:00,65.5,13.4,28.97,West,267,8.7,17.0,13,0.00,,,0.00,VWS V13.01,2013-03-16 08:20:00,
2013-03-16 04:25:00,65.3,13.2,28.97,SW,227,5.8,5.8,13,0.00,,,0.00,VWS V13.01,2013-03-16 08:25:00,
2013-03-16 04:30:00,65.3,13.2,28.97,WNW,282,5.8,13.2,13,0.00,,,0.00,VWS V13.01,2013-03-16 08:30:00,
2013-03-16 04:35:00,65.1,13.1,29.00,NW,308,6.3,11.0,13,0.00,,,0.00,VWS V13.01,2013-03-16 08:35:00,
2013-03-16 04:40:00,65.3,13.2,29.00,West,270,9.6,15.4,13,0.00,,,0.00,VWS V13.01,2013-03-16 08:40:00,
2013-03-16 04:45:00,65.3,13.2,29.00,West,279,7.6,15.0,13,0.00,,,0.00,VWS V13.01,2013-03-16 08:45:00,
2013-03-16 04:50:00,65.3,13.2,29.00,West,262,8.1,12.3,13,0.00,,,0.00,VWS V13.01,2013-03-16 08:50:00,
2013-03-16 04:55:00,65.3,13.2,29.00,WSW,254,8.3,10.5,13,0.00,,,0.00,VWS V13.01,2013-03-16 08:55:00,
2013-03-16 05:00:00,65.1,13.1,29.00,West,261,6.7,24.6,13,0.00,,,0.00,VWS V13.01,2013-03-16 09:00:00,
2013-03-16 05:05:00,65.3,13.2,28.97,WNW,290,6.3,13.6,13,0.00,,,0.00,VWS V13.01,2013-03-16 09:05:00,
2013-03-16 05:10:00,65.3,13.2,28.97,WNW,294,8.1,16.3,13,0.00,,,0.00,VWS V13.01,2013-03-16 09:10:00,
2013-03-16 05:15:00,65.3,13.2,28.97,SW,235,8.7,17.4,13,0.00,,,0.00,VWS V13.01,2013-03-16 09:15:00,
2013-03-16 05:20:00,65.3,13.2,28.97,WSW,248,7.6,13.6,13,0.00,,,0.00,VWS V13.01,2013-03-16 09:20:00,
2013-03-16 05:25:00,65.3,13.2,28.97,WNW,290,15.0,16.3,13,0.00,,,0.00,VWS V13.01,2013-03-16 09:25:00,
2013-03-16 05:30:00,65.1,13.1,28.97,WNW,298,8.7,12.3,13,0.00,,,0.00,VWS V13.01,2013-03-16 09:30:00,
2013-03-16 05:35:00,65.1,13.1,28.97,WNW,296,8.1,14.1,13,0.00,,,0.00,VWS V13.01,2013-03-16 09:35:00,
2013-03-16 05:40:00,65.1,13.1,28.97,WNW,292,15.4,15.4,13,0.00,,,0.00,VWS V13.01,2013-03-16 09:40:00,
2013-03-16 05:45:00,65.1,13.1,28.97,West,266,8.1,17.4,13,0.00,,,0.00,VWS V13.01,2013-03-16 09:45:00,
2013-03-16 05:50:00,65.1,13.1,29.00,WNW,289,7.6,13.2,13,0.00,,,0.00,VWS V13.01,2013-03-16 09:50:00,
2013-03-16 05:55:00,65.1,13.1,29.00,West,281,7.6,13.2,13,0.00,,,0.00,VWS V13.01,2013-03-16 09:55:00,
2013-03-16 06:00:00,65.1,13.1,29.00,NW,304,2.7,16.3,13,0.00,,,0.00,VWS V13.01,2013-03-16 10:00:00,
2013-03-16 06:05:00,64.9,12.9,29.00,WSW,258,11.9,11.9,13,0.00,,,0.00,VWS V13.01,2013-03-16 10:05:00,
2013-03-16 06:10:00,65.1,13.1,29.00,West,275,8.3,12.8,13,0.00,,,0.00,VWS V13.01,2013-03-16 10:10:00,
2013-03-16 06:15:00,65.1,13.1,29.00,SSW,208,7.6,12.3,13,0.00,,,0.00,VWS V13.01,2013-03-16 10:15:00,
2013-03-16 06:20:00,64.9,12.9,29.00,WNW,292,5.4,14.1,13,0.00,,,0.00,VWS V13.01,2013-03-16 10:20:00,
2013-03-16 06:25:00,64.8,12.8,29.00,WNW,294,13.6,13.6,13,0.00,,,0.00,VWS V13.01,2013-03-16 10:25:00,
2013-03-16 06:30:00,64.9,12.9,29.00,West,273,5.8,15.4,13,0.00,,,0.00,VWS V13.01,2013-03-16 10:30:00,
2013-03-16 06:35:00,64.8,12.8,29.00,WSW,252,12.8,15.0,13,0.00,,,0.00,VWS V13.01,2013-03-16 10:35:00,
2013-03-16 06:40:00,64.9,12.9,29.00,WSW,252,16.8,16.8,13,0.00,,,0.00,VWS V13.01,2013-03-16 10:40:00,
2013-03-16 06:45:00,64.9,12.9,29.00,WNW,289,8.3,15.4,13,0.00,,,0.00,VWS V13.01,2013-03-16 10:45:00,
2013-03-16 06:50:00,64.9,12.9,29.00,West,276,8.7,15.0,13,0.00,,,0.00,VWS V13.01,2013-03-16 10:50:00,
2013-03-16 06:55:00,64.8,12.8,29.00,WNW,303,4.0,10.1,13,0.00,,,0.00,VWS V13.01,2013-03-16 10:55:00,
2013-03-16 07:00:00,64.8,12.8,29.00,WNW,288,10.5,12.8,13,0.00,,,0.00,VWS V13.01,2013-03-16 11:00:00,
2013-03-16 07:05:00,64.9,12.9,29.00,NW,316,10.1,11.0,13,0.00,,,0.00,VWS V13.01,2013-03-16 11:05:00,
2013-03-16 07:10:00,64.8,12.8,29.00,West,268,5.4,12.8,13,0.00,,,0.00,VWS V13.01,2013-03-16 11:10:00,
2013-03-16 07:15:00,64.8,12.8,29.00,West,269,4.9,13.2,13,0.00,,,0.00,VWS V13.01,2013-03-16 11:15:00,
2013-03-16 07:20:00,64.8,12.8,29.00,WSW,244,5.8,11.0,13,0.00,,,0.00,VWS V13.01,2013-03-16 11:20:00,
2013-03-16 07:25:00,64.6,12.7,29.00,WNW,289,10.5,12.3,13,0.00,,,0.00,VWS V13.01,2013-03-16 11:25:00,
2013-03-16 07:30:00,64.8,12.8,29.00,West,267,6.3,12.8,13,0.00,,,0.00,VWS V13.01,2013-03-16 11:30:00,
2013-03-16 07:35:00,64.6,12.7,29.00,WNW,285,4.0,10.1,13,0.00,,,0.00,VWS V13.01,2013-03-16 11:35:00,
2013-03-16 07:40:00,64.4,12.5,29.00,WNW,283,5.4,6.3,13,0.00,,,0.00,VWS V13.01,2013-03-16 11:40:00,
2013-03-16 07:45:00,64.4,12.5,29.00,WNW,283,10.1,12.8,13,0.00,,,0.00,VWS V13.01,2013-03-16 11:45:00,
2013-03-16 07:50:00,64.6,12.7,29.00,WNW,282,6.3,9.6,13,0.00,,,0.00,VWS V13.01,2013-03-16 11:50:00,
2013-03-16 07:55:00,64.4,12.5,29.00,West,277,3.6,15.0,13,0.00,,,0.00,VWS V13.01,2013-03-16 11:55:00,
2013-03-16 08:00:00,64.4,12.5,29.00,West,259,5.4,10.1,13,0.00,,,0.00,VWS V13.01,2013-03-16 12:00:00,
2013-03-16 08:05:00,64.2,12.4,29.00,SW,234,8.1,8.1,13,0.00,,,0.00,VWS V13.01,2013-03-16 12:05:00,
2013-03-16 08:10:00,64.4,12.5,29.00,NW,304,4.9,11.0,13,0.00,,,0.00,VWS V13.01,2013-03-16 12:10:00,
2013-03-16 08:15:00,64.4,12.5,29.00,West,265,7.6,9.6,13,0.00,,,0.00,VWS V13.01,2013-03-16 12:15:00,
2013-03-16 08:20:00,64.4,12.5,29.00,WNW,289,5.8,8.1,13,0.00,,,0.00,VWS V13.01,2013-03-16 12:20:00,
2013-03-16 08:25:00,64.4,12.5,29.00,WNW,288,5.4,8.1,13,0.00,,,0.00,VWS V13.01,2013-03-16 12:25:00,
2013-03-16 08:30:00,64.4,12.5,29.00,WNW,294,3.1,10.1,13,0.00,,,0.00,VWS V13.01,2013-03-16 12:30:00,
2013-03-16 08:35:00,64.4,12.5,29.00,WNW,301,3.1,6.3,13,0.00,,,0.00,VWS V13.01,2013-03-16 12:35:00,
2013-03-16 08:40:00,64.4,12.5,29.00,West,263,3.6,8.3,13,0.00,,,0.00,VWS V13.01,2013-03-16 12:40:00,
2013-03-16 08:45:00,64.6,12.7,29.00,West,264,4.9,8.7,13,0.00,,,0.00,VWS V13.01,2013-03-16 12:45:00,
2013-03-16 08:50:00,64.6,12.7,29.00,West,279,8.7,11.0,13,0.00,,,0.00,VWS V13.01,2013-03-16 12:50:00,
2013-03-16 08:55:00,64.8,12.8,29.00,WSW,258,8.3,10.1,13,0.00,,,0.00,VWS V13.01,2013-03-16 12:55:00,
2013-03-16 09:00:00,64.8,12.8,29.00,NW,320,2.7,10.1,13,0.00,,,0.00,VWS V13.01,2013-03-16 13:00:00,
2013-03-16 09:06:00,64.8,12.8,29.00,WSW,247,8.1,8.7,13,0.00,,,0.00,VWS V13.01,2013-03-16 13:06:00,
2013-03-16 09:10:00,64.8,12.8,29.00,West,264,5.8,12.8,13,0.00,,,0.00,VWS V13.01,2013-03-16 13:10:00,
2013-03-16 09:16:00,64.9,12.9,29.00,NW,322,3.6,8.7,13,0.00,,,0.00,VWS V13.01,2013-03-16 13:16:00,
2013-03-16 09:21:00,64.9,12.9,29.00,West,280,5.4,9.6,13,0.00,,,0.00,VWS V13.01,2013-03-16 13:21:00,
2013-03-16 09:26:00,65.1,13.1,29.00,West,262,4.0,10.5,13,0.00,,,0.00,VWS V13.01,2013-03-16 13:26:00,
2013-03-16 09:31:00,65.3,13.2,29.00,WNW,287,7.6,10.5,13,0.00,,,0.00,VWS V13.01,2013-03-16 13:31:00,
2013-03-16 09:35:00,65.5,13.4,29.00,WNW,287,5.4,5.4,13,0.00,,,0.00,VWS V13.01,2013-03-16 13:35:00,
2013-03-16 09:41:00,65.7,13.5,29.00,ENE,58,6.3,6.3,13,0.00,,,0.00,VWS V13.01,2013-03-16 13:41:00,
2013-03-16 09:46:00,65.8,13.6,29.00,West,259,8.1,8.1,13,0.00,,,0.00,VWS V13.01,2013-03-16 13:46:00,
2013-03-16 09:51:00,66.0,13.8,29.00,West,280,10.1,10.1,13,0.00,,,0.00,VWS V13.01,2013-03-16 13:51:00,
2013-03-16 09:56:00,66.0,13.8,29.00,West,261,8.1,8.1,13,0.00,,,0.00,VWS V13.01,2013-03-16 13:56:00,
2013-03-16 10:01:00,66.0,13.8,29.00,West,260,7.2,7.2,13,0.00,,,0.00,VWS V13.01,2013-03-16 14:01:00,
2013-03-16 10:06:00,66.2,12.1,29.00,SW,219,3.6,3.6,12,0.00,,,0.00,VWS V13.01,2013-03-16 14:06:00,
2013-03-16 10:11:00,66.2,12.1,29.00,West,262,8.1,8.1,12,0.00,,,0.00,VWS V13.01,2013-03-16 14:11:00,
2013-03-16 10:16:00,66.4,12.3,29.00,West,271,5.8,7.6,12,0.00,,,0.00,VWS V13.01,2013-03-16 14:16:00,
2013-03-16 10:21:00,66.4,12.3,29.00,WSW,239,10.1,13.2,12,0.00,,,0.00,VWS V13.01,2013-03-16 14:21:00,
2013-03-16 10:26:00,66.6,12.4,29.00,West,273,6.7,8.3,12,0.00,,,0.00,VWS V13.01,2013-03-16 14:26:00,
2013-03-16 10:31:00,66.7,12.5,29.00,WNW,282,5.8,15.4,12,0.00,,,0.00,VWS V13.01,2013-03-16 14:31:00,
2013-03-16 10:36:00,66.9,12.7,29.00,WSW,257,5.4,5.4,12,0.00,,,0.00,VWS V13.01,2013-03-16 14:36:00,
2013-03-16 10:41:00,67.1,12.8,29.00,WSW,246,8.7,10.5,12,0.00,,,0.00,VWS V13.01,2013-03-16 14:41:00,
2013-03-16 10:46:00,67.1,12.8,29.00,West,273,5.4,7.6,12,0.00,,,0.00,VWS V13.01,2013-03-16 14:46:00,
2013-03-16 10:51:00,67.1,12.8,29.00,West,278,5.4,12.3,12,0.00,,,0.00,VWS V13.01,2013-03-16 14:51:00,
2013-03-16 10:56:00,67.3,13.0,29.00,West,266,11.0,11.0,12,0.00,,,0.00,VWS V13.01,2013-03-16 14:56:00,
2013-03-16 11:01:00,67.3,13.0,29.00,WNW,283,8.7,11.0,12,0.00,,,0.00,VWS V13.01,2013-03-16 15:01:00,
2013-03-16 11:06:00,67.5,13.1,29.00,WNW,303,6.3,12.8,12,0.00,,,0.00,VWS V13.01,2013-03-16 15:06:00,
2013-03-16 11:11:00,67.8,13.4,29.00,West,271,4.5,8.1,12,0.00,,,0.00,VWS V13.01,2013-03-16 15:11:00,
2013-03-16 11:16:00,68.2,13.7,29.00,NW,317,6.3,8.7,12,0.00,,,0.00,VWS V13.01,2013-03-16 15:16:00,
2013-03-16 11:22:00,68.4,13.8,29.00,West,268,5.8,8.3,12,0.00,,,0.00,VWS V13.01,2013-03-16 15:22:00,
2013-03-16 11:27:00,68.5,13.9,29.00,West,260,7.2,8.1,12,0.00,,,0.00,VWS V13.01,2013-03-16 15:27:00,
2013-03-16 11:32:00,68.5,13.9,29.00,West,274,8.3,9.2,12,0.00,,,0.00,VWS V13.01,2013-03-16 15:32:00,
2013-03-16 11:37:00,68.5,13.9,29.03,WNW,289,8.3,15.4,12,0.00,,,0.00,VWS V13.01,2013-03-16 15:37:00,
2013-03-16 11:42:00,68.4,13.8,29.03,WNW,284,8.1,13.2,12,0.00,,,0.00,VWS V13.01,2013-03-16 15:42:00,
2013-03-16 11:47:00,68.4,13.8,29.03,WNW,290,8.3,11.0,12,0.00,,,0.00,VWS V13.01,2013-03-16 15:47:00,
2013-03-16 11:52:00,68.5,13.9,29.00,West,259,12.3,17.0,12,0.00,,,0.00,VWS V13.01,2013-03-16 15:52:00,
2013-03-16 11:57:00,68.5,13.9,29.00,NW,312,10.5,12.8,12,0.00,,,0.00,VWS V13.01,2013-03-16 15:57:00,
2013-03-16 12:02:00,68.9,14.2,29.00,WNW,292,8.1,16.3,12,0.00,,,0.00,VWS V13.01,2013-03-16 16:02:00,
2013-03-16 12:07:00,69.1,14.4,29.00,West,281,12.3,15.0,12,0.00,,,0.00,VWS V13.01,2013-03-16 16:07:00,
2013-03-16 12:12:00,69.3,14.5,29.00,West,264,22.8,22.8,12,0.00,,,0.00,VWS V13.01,2013-03-16 16:12:00,
2013-03-16 12:17:00,69.3,14.5,29.00,West,262,5.8,10.1,12,0.00,,,0.00,VWS V13.01,2013-03-16 16:17:00,
2013-03-16 12:22:00,69.4,14.6,29.00,West,262,8.7,11.0,12,0.00,,,0.00,VWS V13.01,2013-03-16 16:22:00,
2013-03-16 12:27:00,69.6,14.8,29.00,SW,236,13.6,21.0,12,0.00,,,0.00,VWS V13.01,2013-03-16 16:27:00,
2013-03-16 12:32:00,69.6,14.8,29.00,West,261,8.1,15.4,12,0.00,,,0.00,VWS V13.01,2013-03-16 16:32:00,
2013-03-16 12:37:00,69.6,14.8,29.00,SSW,213,14.5,15.9,12,0.00,,,0.00,VWS V13.01,2013-03-16 16:37:00,
2013-03-16 12:42:00,69.8,14.9,29.00,West,274,8.1,8.7,12,0.00,,,0.00,VWS V13.01,2013-03-16 16:42:00,
2013-03-16 12:47:00,69.8,14.9,29.00,West,278,12.3,17.4,12,0.00,,,0.00,VWS V13.01,2013-03-16 16:47:00,
2013-03-16 12:52:00,70.2,15.2,29.00,West,262,8.7,15.0,12,0.00,,,0.00,VWS V13.01,2013-03-16 16:52:00,
2013-03-16 12:57:00,70.0,15.1,29.00,NNW,330,8.1,16.8,12,0.00,,,0.00,VWS V13.01,2013-03-16 16:57:00,
2013-03-16 13:02:00,70.2,15.2,29.00,West,265,5.4,17.0,12,0.00,,,0.00,VWS V13.01,2013-03-16 17:02:00,
2013-03-16 13:07:00,70.2,15.2,29.00,WNW,292,12.3,12.3,12,0.00,,,0.00,VWS V13.01,2013-03-16 17:07:00,
2013-03-16 13:12:00,70.2,15.2,29.00,West,278,6.3,15.0,12,0.00,,,0.00,VWS V13.01,2013-03-16 17:12:00,
2013-03-16 13:17:00,70.3,15.4,29.00,West,280,17.4,17.4,12,0.00,,,0.00,VWS V13.01,2013-03-16 17:17:00,
2013-03-16 13:22:00,70.5,15.5,29.03,West,268,12.3,14.1,12,0.00,,,0.00,VWS V13.01,2013-03-16 17:22:00,
2013-03-16 13:27:00,70.5,15.5,29.03,West,262,10.1,17.4,12,0.00,,,0.00,VWS V13.01,2013-03-16 17:27:00,
2013-03-16 13:32:00,70.5,15.5,29.03,WSW,237,11.0,27.5,12,0.00,,,0.00,VWS V13.01,2013-03-16 17:32:00,
2013-03-16 13:37:00,70.3,15.4,29.03,West,264,8.7,15.0,12,0.00,,,0.00,VWS V13.01,2013-03-16 17:37:00,
2013-03-16 13:42:00,70.5,15.5,29.03,NW,310,11.9,13.2,12,0.00,,,0.00,VWS V13.01,2013-03-16 17:42:00,
2013-03-16 13:47:00,71.1,15.9,29.03,WSW,248,17.4,17.4,12,0.00,,,0.00,VWS V13.01,2013-03-16 17:47:00,
2013-03-16 13:52:00,71.1,15.9,29.03,WNW,292,11.0,13.6,12,0.00,,,0.00,VWS V13.01,2013-03-16 17:52:00,
2013-03-16 13:57:00,70.9,15.8,29.03,West,277,11.0,13.2,12,0.00,,,0.00,VWS V13.01,2013-03-16 17:57:00,
2013-03-16 14:02:00,70.7,15.6,29.03,WNW,290,5.8,17.4,12,0.00,,,0.00,VWS V13.01,2013-03-16 18:02:00,
2013-03-16 14:07:00,70.5,15.5,29.03,NW,314,15.0,19.2,12,0.00,,,0.00,VWS V13.01,2013-03-16 18:07:00,
2013-03-16 14:12:00,70.5,15.5,29.03,WNW,300,14.5,14.5,12,0.00,,,0.00,VWS V13.01,2013-03-16 18:12:00,
2013-03-16 14:17:00,70.5,15.5,29.03,NW,326,15.0,15.0,12,0.00,,,0.00,VWS V13.01,2013-03-16 18:17:00,
2013-03-16 14:22:00,70.3,15.4,29.03,West,267,9.6,12.3,12,0.00,,,0.00,VWS V13.01,2013-03-16 18:22:00,
2013-03-16 14:27:00,70.2,15.2,29.03,WNW,286,10.5,21.9,12,0.00,,,0.00,VWS V13.01,2013-03-16 18:27:00,
2013-03-16 14:32:00,70.0,15.1,29.03,WNW,300,9.6,22.8,12,0.00,,,0.00,VWS V13.01,2013-03-16 18:32:00,
2013-03-16 14:37:00,69.8,14.9,29.03,WNW,293,6.3,17.4,12,0.00,,,0.00,VWS V13.01,2013-03-16 18:37:00,
2013-03-16 14:42:00,69.6,14.8,29.03,West,281,12.3,12.3,12,0.00,,,0.00,VWS V13.01,2013-03-16 18:42:00,
2013-03-16 14:48:00,69.4,14.6,29.03,WSW,254,10.1,10.5,12,0.00,,,0.00,VWS V13.01,2013-03-16 18:48:00,
2013-03-16 14:53:00,69.3,14.5,29.03,West,266,12.8,12.8,12,0.00,,,0.00,VWS V13.01,2013-03-16 18:53:00,
2013-03-16 14:58:00,69.4,14.6,29.03,WNW,284,11.0,15.0,12,0.00,,,0.00,VWS V13.01,2013-03-16 18:58:00,
2013-03-16 15:03:00,69.4,14.6,29.03,WNW,285,8.1,15.0,12,0.00,,,0.00,VWS V13.01,2013-03-16 19:03:00,
2013-03-16 15:08:00,69.4,14.6,29.03,WNW,287,5.4,15.4,12,0.00,,,0.00,VWS V13.01,2013-03-16 19:08:00,
2013-03-16 15:13:00,69.6,14.8,29.03,West,263,11.0,13.2,12,0.00,,,0.00,VWS V13.01,2013-03-16 19:13:00,
2013-03-16 15:18:00,69.6,14.8,29.03,WSW,252,6.3,8.7,12,0.00,,,0.00,VWS V13.01,2013-03-16 19:18:00,
2013-03-16 15:23:00,69.6,14.8,29.03,WSW,251,5.8,10.1,12,0.00,,,0.00,VWS V13.01,2013-03-16 19:23:00,
2013-03-16 15:28:00,69.6,14.8,29.03,WSW,243,11.0,13.2,12,0.00,,,0.00,VWS V13.01,2013-03-16 19:28:00,
2013-03-16 15:33:00,69.6,14.8,29.03,West,280,6.3,10.5,12,0.00,,,0.00,VWS V13.01,2013-03-16 19:33:00,
2013-03-16 15:38:00,70.0,15.1,29.03,WSW,256,9.6,12.8,12,0.00,,,0.00,VWS V13.01,2013-03-16 19:38:00,
2013-03-16 15:43:00,70.3,15.4,29.03,SW,234,11.0,11.0,12,0.00,,,0.00,VWS V13.01,2013-03-16 19:43:00,
2013-03-16 15:48:00,70.9,15.8,29.03,WNW,295,5.4,11.0,12,0.00,,,0.00,VWS V13.01,2013-03-16 19:48:00,
2013-03-16 15:53:00,71.1,15.9,29.03,West,273,10.5,17.0,12,0.00,,,0.00,VWS V13.01,2013-03-16 19:53:00,
2013-03-16 15:58:00,71.1,15.9,29.03,WSW,254,7.6,10.1,12,0.00,,,0.00,VWS V13.01,2013-03-16 19:58:00,
2013-03-16 16:03:00,71.1,15.9,29.03,West,265,12.8,12.8,12,0.00,,,0.00,VWS V13.01,2013-03-16 20:03:00,
2013-03-16 16:08:00,70.9,15.8,29.03,WSW,256,8.7,11.9,12,0.00,,,0.00,VWS V13.01,2013-03-16 20:08:00,
2013-03-16 16:13:00,70.7,15.6,29.03,WNW,294,8.1,10.5,12,0.00,,,0.00,VWS V13.01,2013-03-16 20:13:00,
2013-03-16 16:18:00,70.9,15.8,29.03,WNW,302,9.2,11.9,12,0.00,,,0.00,VWS V13.01,2013-03-16 20:18:00,
2013-03-16 16:23:00,71.1,15.9,29.03,North,349,11.0,12.3,12,0.00,,,0.00,VWS V13.01,2013-03-16 20:23:00,
2013-03-16 16:28:00,71.8,14.5,29.03,West,267,4.0,11.0,11,0.00,,,0.00,VWS V13.01,2013-03-16 20:28:00,
2013-03-16 16:33:00,71.8,14.5,29.03,West,267,11.9,15.0,11,0.00,,,0.00,VWS V13.01,2013-03-16 20:33:00,
2013-03-16 16:38:00,71.6,14.4,29.03,WNW,302,12.8,12.8,11,0.00,,,0.00,VWS V13.01,2013-03-16 20:38:00,
2013-03-16 16:43:00,71.8,14.5,29.03,WNW,285,8.7,13.6,11,0.00,,,0.00,VWS V13.01,2013-03-16 20:43:00,
2013-03-16 16:48:00,72.0,14.6,29.03,West,261,14.1,14.1,11,0.00,,,0.00,VWS V13.01,2013-03-16 20:48:00,
2013-03-16 16:53:00,72.3,14.9,29.03,NW,314,10.1,18.8,11,0.00,,,0.00,VWS V13.01,2013-03-16 20:53:00,
2013-03-16 16:58:00,72.3,14.9,29.03,West,277,8.3,19.2,11,0.00,,,0.00,VWS V13.01,2013-03-16 20:58:00,
2013-03-16 17:03:00,72.3,14.9,29.03,WNW,298,11.0,21.0,11,0.00,,,0.00,VWS V13.01,2013-03-16 21:03:00,
2013-03-16 17:08:00,72.5,15.0,29.03,WSW,256,8.7,17.4,11,0.00,,,0.00,VWS V13.01,2013-03-16 21:08:00,
2013-03-16 17:13:00,72.5,15.0,29.03,WNW,283,8.7,14.5,11,0.00,,,0.00,VWS V13.01,2013-03-16 21:13:00,
2013-03-16 17:18:00,72.3,14.9,29.03,WNW,300,10.5,16.8,11,0.00,,,0.00,VWS V13.01,2013-03-16 21:18:00,
2013-03-16 17:23:00,72.3,14.9,29.03,West,274,8.3,12.8,11,0.00,,,0.00,VWS V13.01,2013-03-16 21:23:00,
2013-03-16 17:28:00,72.7,15.2,29.03,West,280,8.3,17.4,11,0.00,,,0.00,VWS V13.01,2013-03-16 21:28:00,
2013-03-16 17:33:00,72.7,15.2,29.03,WNW,298,12.8,13.2,11,0.00,,,0.00,VWS V13.01,2013-03-16 21:33:00,
2013-03-16 17:38:00,72.9,15.3,29.03,WNW,292,10.1,10.1,11,0.00,,,0.00,VWS V13.01,2013-03-16 21:38:00,
2013-03-16 17:43:00,72.5,15.0,29.03,West,279,14.5,15.0,11,0.00,,,0.00,VWS V13.01,2013-03-16 21:43:00,
2013-03-16 17:48:00,72.1,14.8,29.03,WNW,300,8.7,11.9,11,0.00,,,0.00,VWS V13.01,2013-03-16 21:48:00,
2013-03-16 17:53:00,72.0,14.6,29.03,NW,306,13.2,13.2,11,0.00,,,0.00,VWS V13.01,2013-03-16 21:53:00,
2013-03-16 17:58:00,71.8,14.5,29.03,WNW,284,8.1,15.4,11,0.00,,,0.00,VWS V13.01,2013-03-16 21:58:00,
2013-03-16 18:03:00,71.6,14.4,29.06,WNW,293,12.3,13.2,11,0.00,,,0.00,VWS V13.01,2013-03-16 22:03:00,
2013-03-16 18:08:00,71.2,16.1,29.06,NNW,333,10.5,14.5,12,0.00,,,0.00,VWS V13.01,2013-03-16 22:08:00,
2013-03-16 18:13:00,71.1,15.9,29.06,NW,312,8.3,17.9,12,0.00,,,0.00,VWS V13.01,2013-03-16 22:13:00,
2013-03-16 18:18:00,71.1,15.9,29.06,West,267,8.3,13.2,12,0.00,,,0.00,VWS V13.01,2013-03-16 22:18:00,
2013-03-16 18:26:00,70.9,15.8,29.06,NW,305,8.7,12.8,12,0.00,,,0.00,VWS V13.01,2013-03-16 22:26:00,
2013-03-16 18:36:00,70.5,15.5,29.06,WNW,301,14.5,16.3,12,0.00,,,0.00,VWS V13.01,2013-03-16 22:36:00,
2013-03-16 18:46:00,70.2,15.2,29.06,WNW,301,8.3,10.1,12,0.00,,,0.00,VWS V13.01,2013-03-16 22:46:00,
2013-03-16 18:51:00,69.6,14.8,29.06,NW,304,13.2,14.5,12,0.00,,,0.00,VWS V13.01,2013-03-16 22:51:00,
2013-03-16 18:56:00,68.0,13.5,29.06,NW,321,8.1,13.2,12,0.00,,,0.00,VWS V13.01,2013-03-16 22:56:00,
2013-03-16 19:06:00,66.6,12.4,29.09,NNW,341,5.8,14.1,12,0.00,,,0.00,VWS V13.01,2013-03-16 23:06:00,
2013-03-16 19:11:00,66.2,12.1,29.09,NNW,329,3.6,10.1,12,0.00,,,0.00,VWS V13.01,2013-03-16 23:11:00,
2013-03-16 19:21:00,65.3,13.2,29.12,NNW,338,8.3,12.3,13,0.00,,,0.00,VWS V13.01,2013-03-16 23:21:00,
2013-03-16 19:26:00,65.1,13.1,29.12,NNW,340,8.1,13.2,13,0.00,,,0.00,VWS V13.01,2013-03-16 23:26:00,
2013-03-16 19:31:00,64.8,12.8,29.12,North,353,5.4,8.7,13,0.00,,,0.00,VWS V13.01,2013-03-16 23:31:00,
2013-03-16 19:36:00,64.6,12.7,29.12,NNW,335,10.1,12.3,13,0.00,,,0.00,VWS V13.01,2013-03-16 23:36:00,
2013-03-16 19:41:00,64.4,12.5,29.12,NNE,16,10.1,10.1,13,0.00,,,0.00,VWS V13.01,2013-03-16 23:41:00,
2013-03-16 19:46:00,64.2,12.4,29.12,NNW,345,5.8,7.6,13,0.00,,,0.00,VWS V13.01,2013-03-16 23:46:00,
2013-03-16 19:51:00,64.0,12.2,29.12,NNW,327,5.8,6.3,13,0.00,,,0.00,VWS V13.01,2013-03-16 23:51:00,
2013-03-16 19:56:00,63.9,12.1,29.12,North,357,3.6,5.4,13,0.00,,,0.00,VWS V13.01,2013-03-16 23:56:00,
2013-03-16 20:01:00,63.7,11.9,29.12,North,3,5.8,10.5,13,0.00,,,0.00,VWS V13.01,2013-03-17 00:01:00,
2013-03-16 20:06:00,63.3,11.7,29.12,WNW,296,7.2,7.2,13,0.00,,,0.00,VWS V13.01,2013-03-17 00:06:00,
2013-03-16 20:12:00,62.8,11.2,29.12,North,357,6.3,7.6,13,0.00,,,0.00,VWS V13.01,2013-03-17 00:12:00,
2013-03-16 20:17:00,62.4,12.6,29.12,WNW,297,3.6,3.6,14,0.00,,,0.00,VWS V13.01,2013-03-17 00:17:00,
2013-03-16 20:22:00,62.2,12.5,29.12,WNW,292,3.6,3.6,14,0.00,,,0.00,VWS V13.01,2013-03-17 00:22:00,
2013-03-16 20:27:00,61.9,12.2,29.12,ENE,71,0.0,2.2,14,0.00,,,0.00,VWS V13.01,2013-03-17 00:27:00,
2013-03-16 20:32:00,61.7,12.1,29.12,NNW,328,3.6,3.6,14,0.00,,,0.00,VWS V13.01,2013-03-17 00:32:00,
2013-03-16 20:37:00,61.5,11.9,29.15,WNW,288,5.4,12.3,14,0.00,,,0.00,VWS V13.01,2013-03-17 00:37:00,
2013-03-16 20:42:00,61.0,11.5,29.15,NW,312,5.4,8.7,14,0.00,,,0.00,VWS V13.01,2013-03-17 00:42:00,
2013-03-16 20:47:00,60.4,11.0,29.15,WNW,299,10.5,10.5,14,0.00,,,0.00,VWS V13.01,2013-03-17 00:47:00,
2013-03-16 20:52:00,59.9,10.6,29.15,NW,315,7.6,8.7,14,0.00,,,0.00,VWS V13.01,2013-03-17 00:52:00,
2013-03-16 20:58:00,59.4,10.2,29.15,WNW,292,8.1,8.7,14,0.00,,,0.00,VWS V13.01,2013-03-17 00:58:00,
2013-03-16 21:03:00,59.2,10.0,29.15,NNW,343,7.6,10.5,14,0.00,,,0.00,VWS V13.01,2013-03-17 01:03:00,
2013-03-16 21:08:00,58.8,9.8,29.15,NNW,339,5.8,8.3,14,0.00,,,0.00,VWS V13.01,2013-03-17 01:08:00,
2013-03-16 21:13:00,58.5,9.5,29.15,NW,315,5.8,6.3,14,0.00,,,0.00,VWS V13.01,2013-03-17 01:13:00,
2013-03-16 21:18:00,58.3,9.3,29.15,NNW,330,3.1,5.8,14,0.00,,,0.00,VWS V13.01,2013-03-17 01:18:00,
2013-03-16 21:23:00,58.1,9.2,29.15,NW,323,4.0,5.8,14,0.00,,,0.00,VWS V13.01,2013-03-17 01:23:00,
2013-03-16 21:28:00,57.7,8.9,29.15,NW,326,2.7,4.5,14,0.00,,,0.00,VWS V13.01,2013-03-17 01:28:00,
2013-03-16 21:33:00,57.4,8.6,29.18,NNW,330,3.1,5.8,14,0.00,,,0.00,VWS V13.01,2013-03-17 01:33:00,
2013-03-16 21:38:00,57.2,12.8,29.18,NW,307,4.9,8.1,17,0.00,,,0.00,VWS V13.01,2013-03-17 01:38:00,
2013-03-16 21:43:00,56.8,12.5,29.18,WNW,301,2.7,7.6,17,0.00,,,0.00,VWS V13.01,2013-03-17 01:43:00,
2013-03-16 21:48:00,56.7,12.4,29.18,NW,319,5.4,6.3,17,0.00,,,0.00,VWS V13.01,2013-03-17 01:48:00,
2013-03-16 21:53:00,56.5,12.2,29.18,WNW,301,2.7,7.6,17,0.00,,,0.00,VWS V13.01,2013-03-17 01:53:00,
2013-03-16 21:58:00,56.3,12.1,29.18,WNW,285,6.3,6.3,17,0.00,,,0.00,VWS V13.01,2013-03-17 01:58:00,
2013-03-16 22:03:00,56.1,11.9,29.18,NW,315,5.4,6.3,17,0.00,,,0.00,VWS V13.01,2013-03-17 02:03:00,
2013-03-16 22:08:00,55.9,11.8,29.18,NNW,342,4.9,10.5,17,0.00,,,0.00,VWS V13.01,2013-03-17 02:08:00,
2013-03-16 22:13:00,55.8,11.6,29.18,NNW,332,10.5,10.5,17,0.00,,,0.00,VWS V13.01,2013-03-17 02:13:00,
2013-03-16 22:18:00,55.4,11.3,29.21,NNW,336,5.8,9.6,17,0.00,,,0.00,VWS V13.01,2013-03-17 02:18:00,
2013-03-16 22:23:00,55.2,12.5,29.21,NNW,341,5.4,10.1,18,0.00,,,0.00,VWS V13.01,2013-03-17 02:23:00,
2013-03-16 22:29:00,55.0,12.3,29.21,NNW,341,6.3,8.7,18,0.00,,,0.00,VWS V13.01,2013-03-17 02:29:00,
2013-03-16 22:34:00,54.5,14.3,29.21,NNW,338,5.4,8.7,20,0.00,,,0.00,VWS V13.01,2013-03-17 02:34:00,
2013-03-16 22:39:00,54.1,14.0,29.21,NW,317,10.5,10.5,20,0.00,,,0.00,VWS V13.01,2013-03-17 02:39:00,
2013-03-16 22:44:00,53.6,16.7,29.21,NW,324,0.0,8.3,23,0.00,,,0.00,VWS V13.01,2013-03-17 02:44:00,
2013-03-16 22:49:00,53.1,16.3,29.21,WNW,284,4.0,8.3,23,0.00,,,0.00,VWS V13.01,2013-03-17 02:49:00,
2013-03-16 22:54:00,52.5,15.8,29.21,North,357,5.4,10.1,23,0.00,,,0.00,VWS V13.01,2013-03-17 02:54:00,
2013-03-16 22:59:00,52.0,15.4,29.21,NNW,338,4.0,6.7,23,0.00,,,0.00,VWS V13.01,2013-03-17 02:59:00,
2013-03-16 23:04:00,51.6,17.9,29.23,NNE,16,0.0,7.2,26,0.00,,,0.00,VWS V13.01,2013-03-17 03:04:00,
2013-03-16 23:09:00,51.3,17.6,29.23,North,357,4.9,6.3,26,0.00,,,0.00,VWS V13.01,2013-03-17 03:09:00,
2013-03-16 23:14:00,50.9,17.2,29.23,NW,315,8.1,8.1,26,0.00,,,0.00,VWS V13.01,2013-03-17 03:14:00,
2013-03-16 23:19:00,50.5,17.8,29.23,North,349,3.6,7.6,27,0.00,,,0.00,VWS V13.01,2013-03-17 03:19:00,
2013-03-16 23:24:00,50.4,17.7,29.23,North,353,5.8,8.1,27,0.00,,,0.00,VWS V13.01,2013-03-17 03:24:00,
2013-03-16 23:29:00,50.2,17.5,29.23,NNE,18,8.1,8.1,27,0.00,,,0.00,VWS V13.01,2013-03-17 03:29:00,
2013-03-16 23:34:00,50.0,17.4,29.23,NNE,19,2.7,5.4,27,0.00,,,0.00,VWS V13.01,2013-03-17 03:34:00,
2013-03-16 23:39:00,49.8,17.2,29.23,ENE,57,0.0,3.1,27,0.00,,,0.00,VWS V13.01,2013-03-17 03:39:00,
2013-03-16 23:44:00,49.8,18.0,29.23,NW,319,0.0,4.9,28,0.00,,,0.00,VWS V13.01,2013-03-17 03:44:00,
2013-03-16 23:49:00,49.8,18.0,29.23,WNW,301,3.6,3.6,28,0.00,,,0.00,VWS V13.01,2013-03-17 03:49:00,
2013-03-16 23:54:00,49.6,17.9,29.23,NNW,341,4.0,4.0,28,0.00,,,0.00,VWS V13.01,2013-03-17 03:54:00,
2013-03-16 23:59:00,49.6,17.9,29.23,North,0,3.1,4.0,28,0.00,,,0.00,VWS V13.01,2013-03-17 03:59:00,